TimeMST,TemperatureF,Dew PointF,Humidity,Sea Level PressureIn,VisibilityMPH,Wind Direction,Wind SpeedMPH,Gust SpeedMPH,PrecipitationIn,Events,Conditions,WindDirDegrees,DateUTC
12:57 AM,48.0,8.1,20,29.78,10.0,Calm,Calm,-,N/A,,Clear,0,2014-06-07 07:57:00
1:57 AM,48.0,8.1,20,29.78,10.0,Calm,Calm,-,N/A,,Clear,0,2014-06-07 08:57:00
2:57 AM,46.9,9.0,21,29.78,10.0,SW,3.5,-,N/A,,Clear,220,2014-06-07 09:57:00
5:57 AM,42.1,12.0,29,29.80,10.0,Calm,Calm,-,N/A,,Unknown,0,2014-06-07 12:57:00
6:57 AM,57.9,21.0,24,29.75,10.0,Calm,Calm,-,N/A,,Clear,0,2014-06-07 13:57:00
7:57 AM,68.0,15.1,13,29.72,10.0,SW,8.1,-,N/A,,Clear,220,2014-06-07 14:57:00
8:57 AM,73.0,12.9,10,29.71,10.0,SW,11.5,-,N/A,,Clear,230,2014-06-07 15:57:00
9:57 AM,75.9,12.9,9,29.73,10.0,South,12.7,19.6,N/A,,Clear,190,2014-06-07 16:57:00
10:57 AM,77.0,8.6,7,30.10,10.0,SW,12.7,19.6,N/A,,Clear,230,2014-06-07 17:57:00
11:57 AM,77.0,7.0,7,29.77,10.0,SW,8.1,16.1,N/A,,Clear,220,2014-06-07 18:57:00
12:57 PM,78.1,5.0,6,29.78,10.0,North,-9999.0,-,N/A,,Clear,0,2014-06-07 19:57:00
1:57 PM,80.1,3.9,5,29.78,10.0,SW,18.4,-,N/A,,Clear,230,2014-06-07 20:57:00
2:57 PM,80.1,3.0,5,29.75,10.0,SSW,16.1,26.5,N/A,,Clear,200,2014-06-07 21:57:00
3:57 PM,80.1,3.9,5,29.74,10.0,SW,17.3,26.5,N/A,,Clear,220,2014-06-07 22:57:00
4:57 PM,78.1,5.0,6,29.75,10.0,SW,12.7,24.2,N/A,,Clear,230,2014-06-07 23:57:00
5:57 PM,75.9,7.0,7,29.78,10.0,SSW,17.3,23.0,N/A,,Clear,210,2014-06-08 00:57:00
6:57 PM,73.0,10.0,9,29.74,10.0,SSW,18.4,-,N/A,,Clear,210,2014-06-08 01:57:00
7:57 PM,69.1,10.0,10,29.74,10.0,SW,9.2,-,N/A,,Clear,230,2014-06-08 02:57:00
8:57 PM,64.9,12.9,13,29.76,10.0,WSW,8.1,-,N/A,,Clear,240,2014-06-08 03:57:00
9:57 PM,60.1,12.0,15,29.79,10.0,SW,3.5,-,N/A,,Clear,230,2014-06-08 04:57:00
10:57 PM,51.8,12.2,21,30.12,10.0,Calm,Calm,-,N/A,,Clear,0,2014-06-08 05:57:00
11:57 PM,51.1,12.0,21,29.81,10.0,Calm,Calm,-,N/A,,Clear,0,2014-06-08 06:57:00